Walterboro, SC

1:33 AM EST on November 20, 2017 (GMT -0500)
Lowcountry Regional

Weather History for KRBW - March, 2013

Change the Weather History Date:

Monday, March 25, 2013

  Actual Average Record
Temperature  
Mean Temperature 48 °F -  
Max Temperature 53 °F 71 °F 77 °F (2015)
Min Temperature 41 °F 43 °F 41 °F (2011)
Degree Days  
Heating Degree Days 18    
Moisture  
Dew Point 30 °F    
Average Humidity 55    
Maximum Humidity 100    
Minimum Humidity 24    
Precipitation  
Precipitation 0.00 in - - ()
Sea Level Pressure  
Sea Level Pressure 29.79 in    
Wind  
Wind Speed 10 mph (WNW)    
Max Wind Speed 28 mph    
Max Gust Speed 39 mph    
Visibility 10 miles    
Events      
Averages and records for this station are not official NWS values.
T = Trace of Precipitation, MM = Missing Value Source: NWS Daily Summary

Daily Weather History Graph

Daily Weather History Graph

Search for Another Location

Airport or City:

Trip Planner

Search our weather history database for the weather conditions in past years. The results will help you decide how hot, cold, wet, or windy it might be!

Date:

Astronomy

Mar. 25, 2013 Rise Set
Actual Time 7:19 AM EDT 7:37 PM EDT
Civil Twilight 6:54 AM EDT 8:02 PM EDT
Nautical Twilight 6:25 AM EDT 8:31 PM EDT
Astronomical Twilight 5:56 AM EDT 9:00 PM EDT
Moon 6:10 PM EDT (3/25) 5:57 AM EDT (3/25)
Length of Visible Light 13h 07m
Length of Day
12h 18m
Waxing Gibbous, 96% of the Moon is Illuminated
Mar 25
Waxing Gibbous
Mar 27
Full
Apr 3
Last Quarter
Apr 10
New
Apr 18
First Quarter

Hourly Weather History & Observations

Time (EDT) Temp. Windchill Dew Point Humidity Pressure Visibility Wind Dir Wind Speed Gust Speed Precip Events Conditions
12:15 AM 46.4 °F - 46.4 °F 100% 29.61 in 10.0 mi Calm Calm - N/A   Overcast
12:35 AM 46.4 °F - 46.4 °F 100% 29.64 in 10.0 mi Calm Calm - N/A   Overcast
12:55 AM 46.4 °F - 46.4 °F 100% 29.64 in 10.0 mi Calm Calm - N/A   Overcast
1:15 AM 46.4 °F - 46.4 °F 100% 29.66 in 10.0 mi Calm Calm - N/A   Overcast
1:55 AM 46.4 °F 44.3 °F 46.4 °F 100% 29.66 in 10.0 mi West 4.6 mph - N/A   Overcast
2:15 AM 46.4 °F - 46.4 °F 100% 29.65 in 10.0 mi Calm Calm - N/A   Overcast
2:35 AM 46.4 °F - 46.4 °F 100% 29.66 in 10.0 mi Calm Calm - N/A   Overcast
2:55 AM 46.4 °F - 46.4 °F 100% 29.66 in 10.0 mi Calm Calm - N/A   Overcast
3:15 AM 46.4 °F 45.2 °F 46.4 °F 100% 29.66 in 10.0 mi West 3.5 mph - N/A   Overcast
3:35 AM 46.4 °F - 46.4 °F 100% 29.65 in 10.0 mi Calm Calm - N/A   Overcast
3:55 AM 46.4 °F - 46.4 °F 100% 29.65 in 10.0 mi Calm Calm - N/A   Mostly Cloudy
4:15 AM 46.4 °F - 46.4 °F 100% 29.66 in 10.0 mi Calm Calm - N/A   Mostly Cloudy
4:55 AM 46.4 °F 40.4 °F 42.8 °F 87% 29.67 in 10.0 mi West 13.8 mph 20.7 mph N/A   Scattered Clouds
5:15 AM 46.4 °F 40.1 °F 41.0 °F 81% 29.69 in 10.0 mi West 15.0 mph 20.7 mph N/A   Mostly Cloudy
6:35 AM 42.8 °F 36.2 °F 32.0 °F 66% 29.72 in 10.0 mi West 12.7 mph 21.9 mph N/A   Clear
6:55 AM 42.8 °F 36.2 °F 32.0 °F 66% 29.73 in 10.0 mi West 12.7 mph 18.4 mph N/A   Clear
7:35 AM 42.8 °F 36.2 °F 30.2 °F 61% 29.74 in 10.0 mi West 12.7 mph 18.4 mph N/A   Clear
7:55 AM 42.8 °F 36.6 °F 30.2 °F 61% 29.75 in 10.0 mi West 11.5 mph 17.3 mph N/A   Clear
8:15 AM 42.8 °F 37.0 °F 32.0 °F 66% 29.76 in 10.0 mi West 10.4 mph - N/A   Clear
8:35 AM 44.6 °F 37.4 °F 32.0 °F 61% 29.76 in 10.0 mi West 16.1 mph 25.3 mph N/A   Clear
9:15 AM 44.6 °F 38.1 °F 32.0 °F 61% 29.77 in 10.0 mi West 13.8 mph 25.3 mph N/A   Scattered Clouds
9:35 AM 44.6 °F 38.1 °F 30.2 °F 57% 29.77 in 10.0 mi WNW 13.8 mph 28.8 mph N/A   Mostly Cloudy
9:55 AM 44.6 °F 38.8 °F 32.0 °F 61% 29.78 in 10.0 mi WNW 11.5 mph 27.6 mph N/A   Overcast
10:15 AM 46.4 °F 40.1 °F 30.2 °F 53% 29.78 in 10.0 mi West 15.0 mph 26.5 mph N/A   Overcast
10:35 AM 46.4 °F 39.8 °F 30.2 °F 53% 29.78 in 10.0 mi WNW 16.1 mph 26.5 mph N/A   Mostly Cloudy
10:55 AM 48.2 °F - 30.2 °F 50% 29.78 in 10.0 mi WNW 20.7 mph 33.4 mph N/A   Mostly Cloudy
11:15 AM 46.4 °F 38.7 °F 28.4 °F 50% 29.79 in 10.0 mi WNW 20.7 mph 34.5 mph N/A   Scattered Clouds
11:55 AM 50.0 °F - 30.2 °F 47% 29.80 in 10.0 mi West 21.9 mph 29.9 mph N/A   Scattered Clouds
12:15 PM 50.0 °F - 30.2 °F 47% 29.80 in 10.0 mi West 19.6 mph 28.8 mph N/A   Scattered Clouds
12:35 PM 50.0 °F - 30.2 °F 47% 29.80 in 10.0 mi West 21.9 mph 29.9 mph N/A   Scattered Clouds
12:55 PM 50.0 °F - 30.2 °F 47% 29.79 in 10.0 mi West 16.1 mph 25.3 mph N/A   Scattered Clouds
1:15 PM 50.0 °F - 28.4 °F 43% 29.79 in 10.0 mi West 25.3 mph 33.4 mph N/A   Scattered Clouds
1:35 PM 50.0 °F - 28.4 °F 43% 29.79 in 10.0 mi WNW 20.7 mph 33.4 mph N/A   Scattered Clouds
1:55 PM 51.8 °F - 28.4 °F 41% 29.78 in 10.0 mi WNW 21.9 mph 32.2 mph N/A   Clear
2:15 PM 51.8 °F - 28.4 °F 41% 29.78 in 10.0 mi WNW 13.8 mph 28.8 mph N/A   Scattered Clouds
2:35 PM 53.6 °F - 28.4 °F 38% 29.78 in 10.0 mi West 19.6 mph 28.8 mph N/A   Scattered Clouds
2:55 PM 53.6 °F - 28.4 °F 38% 29.77 in 10.0 mi West 23.0 mph 29.9 mph N/A   Scattered Clouds
3:15 PM 53.6 °F - 28.4 °F 38% 29.77 in 10.0 mi West 16.1 mph 26.5 mph N/A   Clear
3:35 PM 53.6 °F - 24.8 °F 33% 29.77 in 10.0 mi WNW 27.6 mph 36.8 mph N/A   Clear
3:55 PM 53.6 °F - 26.6 °F 35% 29.78 in 10.0 mi West 18.4 mph 32.2 mph N/A   Scattered Clouds
4:15 PM 53.6 °F - 21.2 °F 28% 29.78 in 10.0 mi WNW 21.9 mph 39.1 mph N/A   Clear
4:35 PM 53.6 °F - 21.2 °F 28% 29.78 in 10.0 mi West 26.5 mph 39.1 mph N/A   Scattered Clouds
4:55 PM 53.6 °F - 21.2 °F 28% 29.78 in 10.0 mi WNW 24.2 mph 34.5 mph N/A   Scattered Clouds
5:15 PM 53.6 °F - 21.2 °F 28% 29.80 in 10.0 mi West 21.9 mph 29.9 mph N/A   Clear
5:35 PM 53.6 °F - 19.4 °F 26% 29.80 in 10.0 mi West 16.1 mph 36.8 mph N/A   Clear
5:55 PM 53.6 °F - 17.6 °F 24% 29.81 in 10.0 mi West 21.9 mph 32.2 mph N/A   Clear
6:15 PM 51.8 °F - 19.4 °F 28% 29.81 in 10.0 mi West 25.3 mph 32.2 mph N/A   Clear
6:35 PM 51.8 °F - 17.6 °F 26% 29.83 in 10.0 mi WNW 16.1 mph 33.4 mph N/A   Clear
6:55 PM 51.8 °F - 19.4 °F 28% 29.84 in 10.0 mi WNW 19.6 mph 28.8 mph N/A   Clear
7:15 PM 50.0 °F - 19.4 °F 30% 29.85 in 10.0 mi WNW 19.6 mph 24.2 mph N/A   Clear
7:55 PM 48.2 °F - 19.4 °F 32% 29.88 in 10.0 mi WNW 15.0 mph 21.9 mph N/A   Clear
8:15 PM 46.4 °F 40.7 °F 21.2 °F 37% 29.89 in 10.0 mi WNW 12.7 mph 20.7 mph N/A   Clear
8:35 PM 46.4 °F 41.5 °F 21.2 °F 37% 29.90 in 10.0 mi WNW 10.4 mph 18.4 mph N/A   Clear
8:55 PM 46.4 °F 40.7 °F 19.4 °F 34% 29.91 in 10.0 mi WNW 12.7 mph 21.9 mph N/A   Clear
9:15 PM 44.6 °F 38.8 °F 21.2 °F 39% 29.93 in 10.0 mi NW 11.5 mph - N/A   Clear
9:35 PM 44.6 °F 39.2 °F 21.2 °F 39% 29.94 in 10.0 mi WNW 10.4 mph - N/A   Clear
9:55 PM 44.6 °F 38.8 °F 21.2 °F 39% 29.95 in 10.0 mi WNW 11.5 mph 18.4 mph N/A   Clear
10:35 PM 42.8 °F 35.4 °F 21.2 °F 42% 29.97 in 10.0 mi WNW 15.0 mph 26.5 mph N/A   Clear
10:55 PM 42.8 °F 37.0 °F 21.2 °F 42% 29.98 in 10.0 mi WNW 10.4 mph 18.4 mph N/A   Clear
11:15 PM 42.8 °F 36.2 °F 21.2 °F 42% 29.99 in 10.0 mi WNW 12.7 mph 23.0 mph N/A   Clear
11:35 PM 42.8 °F 35.1 °F 21.2 °F 42% 30.00 in 10.0 mi WNW 16.1 mph 21.9 mph N/A   Clear
11:55 PM 41.0 °F 33.5 °F 21.2 °F 45% 30.00 in 10.0 mi WNW 13.8 mph 17.3 mph N/A   Clear